Volver al catálogo

GECAM-B

ActivoCienciaVLEO
NORAD 47235·PAYLOAD·🇨🇳 China

Lanzado Dec 9, 2020 desde Xichang Satellite Launch Center

Loading…

Próximos Pases (próximas 24 horas)

TLE

ObsoletoSource: Space-Track

Época: Jun 17, 2026, 05:40 UTC

1 47235U 20094B   26168.23651533  .00002046  00000-0  14016-3 0  9994
2 47235  28.9978  15.0776 0010587 333.3126  26.6927 15.02194018301731

Sigue GECAM-B en tiempo real con AllMySat

Download on the App Store